When you browse on this site, cookies collect data to enhance your experience and personalize the content and advertising you see.
Visit our Privacy Policy to learn more. By continuing to use the site, you agree to this use of cookies and data.
  • In United Kingdom
  • List of Countries
  • For 7 days
  • Water Temperature
  • Weather Map
  • Weather Widgets
  • user-avatar
    Login

    Hourly Weather Pechyshche

    Today, 20 September, Friday

    Time Temperature Precipitation Wind Pressure Humidity
    00:00 +4°C° 0 mm 3 mps 747 mmHg 88%
    01:00 +5°C° 0 mm 2 mps 747 mmHg 89%
    02:00 +5°C° 0 mm 2 mps 747 mmHg 91%
    03:00 +5°C° 0 mm 2 mps 747 mmHg 92%
    04:00 +4°C° 0 mm 2 mps 747 mmHg 93%
    05:00 +4°C° 0 mm 2 mps 746 mmHg 95%
    06:00 +5°C° 0 mm 2 mps 746 mmHg 89%
    07:00 +7°C° 0 mm 2 mps 746 mmHg 83%
    08:00 +8°C° 0 mm 2 mps 747 mmHg 75%
    09:00 +10°C° 0 mm 3 mps 747 mmHg 67%
    10:00 +11°C° 0 mm 3 mps 746 mmHg 58%
    11:00 +13°C° 0 mm 3 mps 746 mmHg 50%
    12:00 +13°C° 0.1 mm 3 mps 746 mmHg 47%
    13:00 +14°C° 0.1 mm 3 mps 745 mmHg 44%
    14:00 +14°C° 0.1 mm 3 mps 745 mmHg 42%
    15:00 +13°C° 0.3 mm 3 mps 745 mmHg 48%
    16:00 +13°C° 0.3 mm 3 mps 745 mmHg 53%
    17:00 +12°C° 0.3 mm 3 mps 745 mmHg 59%
    18:00 +11°C° 0.4 mm 3 mps 745 mmHg 67%
    19:00 +9°C° 0.4 mm 3 mps 745 mmHg 74%
    20:00 +8°C° 0.4 mm 3 mps 745 mmHg 82%
    21:00 +7°C° 0.1 mm 3 mps 745 mmHg 86%
    22:00 +7°C° 0.1 mm 3 mps 745 mmHg 89%
    23:00 +5°C° 0.1 mm 3 mps 745 mmHg 93%

    Tomorrow, 21 September, Saturday

    Time Temperature Precipitation Wind Pressure Humidity
    00:00 +4°C° 0 mm 3 mps 745 mmHg 94%
    01:00 +4°C° 0 mm 3 mps 746 mmHg 95%
    02:00 +3°C° 0 mm 3 mps 746 mmHg 96%
    03:00 +3°C° 0 mm 3 mps 746 mmHg 95%
    04:00 +2°C° 0 mm 3 mps 746 mmHg 94%
    05:00 +2°C° 0 mm 3 mps 746 mmHg 94%
    06:00 +3°C° 0 mm 4 mps 747 mmHg 89%
    07:00 +4°C° 0 mm 4 mps 747 mmHg 85%
    08:00 +5°C° 0 mm 5 mps 747 mmHg 80%
    09:00 +7°C° 0 mm 5 mps 747 mmHg 71%
    10:00 +8°C° 0 mm 5 mps 748 mmHg 62%
    11:00 +10°C° 0 mm 5 mps 748 mmHg 53%
    12:00 +10°C° 0 mm 5 mps 748 mmHg 50%
    13:00 +12°C° 0 mm 5 mps 748 mmHg 47%
    14:00 +12°C° 0 mm 5 mps 747 mmHg 44%
    15:00 +10°C° 0 mm 5 mps 747 mmHg 44%
    16:00 +10°C° 0 mm 4 mps 747 mmHg 45%
    17:00 +9°C° 0 mm 3 mps 747 mmHg 46%
    18:00 +8°C° 0 mm 3 mps 747 mmHg 48%
    19:00 +7°C° 0 mm 2 mps 747 mmHg 50%
    20:00 +6°C° 0 mm 2 mps 747 mmHg 52%
    21:00 +7°C° 0 mm 2 mps 747 mmHg 50%
    22:00 +7°C° 0 mm 3 mps 746 mmHg 49%
    23:00 +7°C° 0 mm 3 mps 746 mmHg 47%

    Day after tomorrow, 22 September, Sunday

    Time Temperature Precipitation Wind Pressure Humidity
    00:00 +7°C° 0 mm 4 mps 745 mmHg 56%
    01:00 +7°C° 0 mm 4 mps 745 mmHg 65%
    02:00 +7°C° 0 mm 5 mps 744 mmHg 74%
    03:00 +7°C° 0.4 mm 5 mps 744 mmHg 80%
    04:00 +8°C° 0.4 mm 6 mps 743 mmHg 87%
    05:00 +9°C° 0.4 mm 6 mps 742 mmHg 94%
    06:00 +9°C° 0.4 mm 7 mps 742 mmHg 91%
    07:00 +10°C° 0.4 mm 7 mps 742 mmHg 88%
    08:00 +11°C° 0.4 mm 8 mps 742 mmHg 86%
    09:00 +12°C° 0.1 mm 8 mps 742 mmHg 82%
    10:00 +12°C° 0.1 mm 9 mps 742 mmHg 78%
    11:00 +12°C° 0.1 mm 9 mps 742 mmHg 74%
    12:00 +12°C° 0.1 mm 8 mps 742 mmHg 73%
    13:00 +12°C° 0.1 mm 8 mps 742 mmHg 73%
    14:00 +12°C° 0.1 mm 8 mps 743 mmHg 73%
    15:00 +12°C° 0 mm 7 mps 742 mmHg 72%
    16:00 +13°C° 0 mm 6 mps 742 mmHg 72%
    17:00 +13°C° 0 mm 4 mps 742 mmHg 71%
    18:00 +13°C° 0.1 mm 5 mps 742 mmHg 72%
    19:00 +13°C° 0.1 mm 6 mps 742 mmHg 74%
    20:00 +13°C° 0.1 mm 6 mps 742 mmHg 75%
    21:00 +10°C° 0.1 mm 6 mps 743 mmHg 76%
    22:00 +9°C° 0.1 mm 5 mps 744 mmHg 77%
    23:00 +8°C° 0.1 mm 4 mps 744 mmHg 77%

    23 September, Monday

    Time Temperature Precipitation Wind Pressure Humidity
    00:00 +6°C° 0 mm 4 mps 745 mmHg 80%
    01:00 +5°C° 0 mm 3 mps 745 mmHg 83%
    02:00 +4°C° 0 mm 3 mps 746 mmHg 86%
    03:00 +3°C° 0 mm 3 mps 746 mmHg 88%
    04:00 +2°C° 0 mm 3 mps 747 mmHg 90%
    05:00 +2°C° 0 mm 3 mps 748 mmHg 92%
    06:00 +3°C° 0 mm 3 mps 748 mmHg 85%
    07:00 +4°C° 0 mm 3 mps 748 mmHg 79%
    08:00 +5°C° 0 mm 3 mps 749 mmHg 72%
    09:00 +7°C° 0 mm 3 mps 749 mmHg 62%
    10:00 +9°C° 0 mm 2 mps 749 mmHg 52%
    11:00 +10°C° 0 mm 2 mps 750 mmHg 41%
    12:00 +12°C° 0 mm 2 mps 749 mmHg 38%
    13:00 +12°C° 0 mm 2 mps 749 mmHg 35%
    14:00 +13°C° 0 mm 1 mps 749 mmHg 31%
    15:00 +12°C° 0 mm 1 mps 749 mmHg 35%
    16:00 +11°C° 0 mm 1 mps 749 mmHg 38%
    17:00 +11°C° 0 mm 1 mps 749 mmHg 41%
    18:00 +9°C° 0 mm 1 mps 749 mmHg 44%
    19:00 +8°C° 0 mm 1 mps 749 mmHg 46%
    20:00 +6°C° 0 mm 2 mps 749 mmHg 49%
    21:00 +6°C° 0 mm 2 mps 749 mmHg 51%
    22:00 +5°C° 0 mm 2 mps 749 mmHg 52%
    23:00 +5°C° 0 mm 2 mps 749 mmHg 54%

    24 September, Tuesday

    Time Temperature Precipitation Wind Pressure Humidity
    00:00 +5°C° 0 mm 2 mps 749 mmHg 54%
    01:00 +4°C° 0 mm 2 mps 749 mmHg 54%
    02:00 +4°C° 0 mm 2 mps 749 mmHg 55%
    03:00 +5°C° 0 mm 2 mps 749 mmHg 53%
    04:00 +6°C° 0 mm 1 mps 749 mmHg 52%
    05:00 +6°C° 0 mm 1 mps 748 mmHg 50%
    06:00 +7°C° 0 mm 1 mps 749 mmHg 48%
    07:00 +7°C° 0 mm 2 mps 749 mmHg 46%
    08:00 +8°C° 0 mm 2 mps 749 mmHg 45%
    09:00 +9°C° 0 mm 2 mps 749 mmHg 43%
    10:00 +10°C° 0 mm 2 mps 749 mmHg 42%
    11:00 +13°C° 0 mm 2 mps 749 mmHg 41%
    12:00 +12°C° 0.2 mm 2 mps 748 mmHg 48%
    13:00 +12°C° 0.2 mm 2 mps 748 mmHg 56%
    14:00 +10°C° 0.2 mm 3 mps 747 mmHg 64%
    15:00 +10°C° 0.1 mm 2 mps 747 mmHg 69%
    16:00 +9°C° 0.1 mm 2 mps 747 mmHg 74%
    17:00 +9°C° 0.1 mm 2 mps 747 mmHg 80%
    18:00 +9°C° 0.1 mm 1 mps 747 mmHg 82%
    19:00 +9°C° 0.1 mm 1 mps 747 mmHg 85%
    20:00 +8°C° 0.1 mm 0 mps 747 mmHg 88%
    21:00 +9°C° 0.1 mm 1 mps 747 mmHg 87%
    22:00 +9°C° 0.1 mm 1 mps 746 mmHg 86%
    23:00 +9°C° 0.1 mm 1 mps 746 mmHg 85%

    25 September, Wednesday

    Time Temperature Precipitation Wind Pressure Humidity
    00:00 +9°C° 0.4 mm 1 mps 746 mmHg 85%
    01:00 +8°C° 0.4 mm 1 mps 746 mmHg 85%
    02:00 +7°C° 0.4 mm 2 mps 746 mmHg 85%
    03:00 +7°C° 0.5 mm 2 mps 746 mmHg 84%
    04:00 +7°C° 0.5 mm 2 mps 746 mmHg 84%
    05:00 +7°C° 0.5 mm 2 mps 745 mmHg 83%
    06:00 +7°C° 0.4 mm 2 mps 746 mmHg 81%
    07:00 +8°C° 0.4 mm 2 mps 746 mmHg 80%
    08:00 +8°C° 0.4 mm 2 mps 746 mmHg 78%
    09:00 +9°C° 0 mm 2 mps 746 mmHg 73%
    10:00 +12°C° 0 mm 2 mps 746 mmHg 67%
    11:00 +13°C° 0 mm 2 mps 746 mmHg 62%
    12:00 +14°C° 0 mm 2 mps 746 mmHg 60%
    13:00 +14°C° 0 mm 2 mps 746 mmHg 58%
    14:00 +14°C° 0 mm 1 mps 746 mmHg 56%
    15:00 +14°C° 0 mm 2 mps 746 mmHg 57%
    16:00 +13°C° 0 mm 2 mps 746 mmHg 58%
    17:00 +13°C° 0 mm 2 mps 746 mmHg 58%
    18:00 +10°C° 0 mm 3 mps 746 mmHg 60%
    19:00 +9°C° 0 mm 3 mps 746 mmHg 61%
    20:00 +7°C° 0 mm 3 mps 746 mmHg 63%
    21:00 +7°C° 0 mm 3 mps 746 mmHg 63%
    22:00 +5°C° 0 mm 3 mps 747 mmHg 63%
    23:00 +4°C° 0 mm 3 mps 747 mmHg 63%
    Show more